Aérodrome :
LOGIN :

S'inscrire | Disclaimer

   EN    FR    IT 

 










Légende :    VFR   VFR Marginal   IFR   IFR Intensif   IFR Très Intensif
Visi : 
Plafond : 
>= 8 km
>= 3000ft
5 à 8 km
1000 à 3000 ft
1500m à 5 km
500 à 1000 ft
800 à 1500m
200 à 500 ft
< 800m
< 200 ft
Symboles :   Orages  Brouillard  Fortes neiges  Fortes précipitations  Vent > 20 kt
SIGMETs :   Divers  Orages  Givrage  Turbulence  Onde Orograph.  Cendres Volcan.






- Altitude de l'aérodrome : 2731 ft
- Code IATA : LPY


LFHP - Le Puy Loudes

DERNIER METAR :
  • 021900Z AUTO 07003KT 030V090 CAVOK 19/10 Q1015

METARs EXPIRÉS :
  • 021830Z AUTO 01005KT 350V060 CAVOK 20/10 Q1015
  • 021800Z AUTO 35008KT 9999 ///TCU 20/10 Q1015
  • 021730Z AUTO 36003KT 310V050 9999 ///CB 23/08 Q1015
  • 021700Z AUTO 03005KT 360V060 9999 ///CB 22/09 Q1015

Prévision TAF périmée.



MET'MAP, la Météo Aéronautique d'un coup d'oeil ! - Copyright ORBIFLY Décembre 2007 - Disclaimer

ORBIFLY MET'MAP TEAM :

Programmation & Développement : Alexandra Zaïnal
Sur une idée originale de : Baudouin d'Aumeries
Assistance à la programmation : Marc-Olivier Méhu
Soutien technique & logistique : Manuel Goepfert

Contact : metmap@orbifly.com




SOURCES & CREDITS :

   NOAA